Weather History for KBAX - January, 2014

Change the Weather History Date:

Wednesday, January 22, 2014

  Actual Average (KP58) Record (KP58)
Temperature  
Mean Temperature -2 °F -  
Max Temperature 9 °F 25 °F 46 °F (1997)
Min Temperature -12 °F 14 °F 0 °F (2000)
Degree Days  
Heating Degree Days 66    
Moisture  
Dew Point -4 °F    
Average Humidity 77    
Maximum Humidity 83    
Minimum Humidity 61    
Precipitation  
Precipitation 0.00 in - - ()
Sea Level Pressure  
Sea Level Pressure 30.01 in    
Wind  
Wind Speed 3 mph (South)    
Max Wind Speed 12 mph    
Max Gust Speed -    
Visibility 7 miles    
Events Snow    
Averages and records for this station are not official NWS values.
T = Trace of Precipitation, MM = Missing Value Source: NWS Daily Summary

Daily Weather History Graph

Daily Weather History Graph

Search for Another Location

Airport or City:

Trip Planner

Search our weather history database for the weather conditions in past years. The results will help you decide how hot, cold, wet, or windy it might be!

Date:

Astronomy

Jan. 22, 2014 Rise Set
Actual Time 7:58 AM EST 5:29 PM EST
Civil Twilight 7:26 AM EST 6:00 PM EST
Nautical Twilight 6:51 AM EST 6:35 PM EST
Astronomical Twilight 6:17 AM EST 7:09 PM EST
Moon No Moon Rise 10:45 AM EST
Length of Visible Light 10h 33m
Length of Day
9h 31m
Waning Gibbous, 65% of the Moon is Illuminated
Jan 22
Waning Gibbous
Jan 24
Last Quarter
Jan 30
New
Feb 6
First Quarter
Feb 14
Full

Hourly Weather History & Observations

Time (EST) Temp. Windchill Dew Point Humidity Pressure Visibility Wind Dir Wind Speed Gust Speed Precip Events Conditions
12:12 AM -9.2 °F - -14.4 °F 78% 30.15 in 10.0 mi Calm Calm - N/A   Clear
12:32 AM -8.1 °F -17.1 °F -13.4 °F 78% 30.15 in 10.0 mi NW 3.5 mph - N/A   Clear
12:53 AM -10.5 °F - -16.1 °F 76% 30.14 in 10.0 mi Calm Calm - N/A   Clear
1:12 AM -10.3 °F - -15.9 °F 76% 30.14 in 10.0 mi Calm Calm - N/A   Clear
1:32 AM -9.4 °F - -14.8 °F 77% 30.13 in 10.0 mi Calm Calm - N/A   Clear
1:52 AM -10.5 °F -24.0 °F -16.4 °F 75% 30.13 in 10.0 mi West 5.8 mph - N/A   Clear
2:12 AM -9.0 °F - -14.3 °F 78% 30.12 in 10.0 mi Calm Calm - N/A   Clear
2:32 AM -10.1 °F - -15.3 °F 78% 30.12 in 10.0 mi Calm Calm - N/A   Clear
2:52 AM -10.3 °F -19.6 °F -15.5 °F 78% 30.12 in 10.0 mi WNW 3.5 mph - N/A   Clear
3:12 AM -8.7 °F - -13.7 °F 79% 30.12 in 10.0 mi Calm Calm - N/A   Clear
3:32 AM -12.1 °F - -17.3 °F 78% 30.12 in 10.0 mi Calm Calm - N/A   Clear
3:52 AM -11.0 °F -26.2 °F -16.2 °F 78% 30.11 in 10.0 mi West 6.9 mph - N/A   Clear
4:12 AM -11.0 °F - -16.1 °F 78% 30.11 in 10.0 mi Calm Calm - N/A   Clear
4:32 AM -9.9 °F - -15.0 °F 78% 30.11 in 10.0 mi Calm Calm - N/A   Clear
4:52 AM -11.7 °F - -16.8 °F 78% 30.10 in 10.0 mi Calm Calm - N/A   Clear
5:12 AM -11.0 °F -20.4 °F -16.6 °F 76% 30.09 in 10.0 mi WSW 3.5 mph - N/A   Clear
5:32 AM -11.0 °F - -16.4 °F 77% 30.08 in 10.0 mi Calm Calm - N/A   Clear
5:52 AM -10.3 °F - -15.5 °F 78% 30.08 in 10.0 mi Calm Calm - N/A   Clear
6:12 AM -9.6 °F - -14.4 °F 79% 30.07 in 10.0 mi Calm Calm - N/A   Clear
6:33 AM -8.9 °F - -13.9 °F 79% 30.07 in 10.0 mi Calm Calm - N/A   Clear
6:52 AM -8.0 °F - -12.8 °F 79% 30.06 in 10.0 mi Calm Calm - N/A   Clear
7:12 AM -7.1 °F - -11.9 °F 79% 30.06 in 10.0 mi Calm Calm - N/A   Clear
7:32 AM -6.5 °F - -11.2 °F 80% 30.06 in 10.0 mi Calm Calm - N/A   Scattered Clouds
7:52 AM -5.1 °F - -9.8 °F 80% 30.05 in 10.0 mi Calm Calm - N/A   Overcast
8:12 AM -5.3 °F - -9.8 °F 81% 30.05 in 10.0 mi Calm Calm - N/A   Overcast
8:32 AM -3.1 °F - -7.4 °F 82% 30.05 in 10.0 mi Calm Calm - N/A   Overcast
8:52 AM -1.5 °F -9.5 °F -6.2 °F 80% 30.04 in 10.0 mi SSW 3.5 mph - N/A   Overcast
9:12 AM -0.4 °F -10.4 °F -5.8 °F 78% 30.04 in 10.0 mi SSW 4.6 mph - N/A   Overcast
9:33 AM 0.3 °F -9.5 °F -5.8 °F 75% 30.04 in 10.0 mi SSW 4.6 mph - N/A   Overcast
9:52 AM 0.9 °F -6.9 °F -6.0 °F 73% 30.04 in 10.0 mi SSW 3.5 mph - N/A   Overcast
10:12 AM 1.4 °F -8.3 °F -6.2 °F 71% 30.04 in 10.0 mi SSW 4.6 mph - N/A   Mostly Cloudy
10:32 AM 2.7 °F -10.9 °F -5.4 °F 69% 30.03 in 10.0 mi SSW 8.1 mph - N/A   Mostly Cloudy
10:52 AM 3.4 °F -8.9 °F -4.9 °F 68% 30.04 in 10.0 mi SSW 6.9 mph - N/A   Overcast
11:12 AM 4.3 °F -7.8 °F -4.2 °F 68% 30.03 in 10.0 mi SSW 6.9 mph - N/A   Overcast
11:32 AM 5.4 °F -5.2 °F -4.0 °F 65% 30.02 in 10.0 mi SSW 5.8 mph - N/A   Overcast
11:52 AM 6.4 °F -5.2 °F -3.6 °F 63% 30.00 in 10.0 mi SSW 6.9 mph - N/A   Overcast
12:12 PM 7.2 °F -5.4 °F -3.6 °F 61% 29.99 in 10.0 mi SSW 8.1 mph - N/A   Overcast
12:32 PM 7.9 °F -5.5 °F -2.7 °F 62% 29.97 in 10.0 mi South 9.2 mph - N/A   Overcast
12:52 PM 8.4 °F -5.7 °F -1.3 °F 65% 29.96 in 10.0 mi SSW 10.4 mph - N/A   Overcast
1:12 PM 8.6 °F -2.6 °F 0.5 °F 70% 29.95 in 7.0 mi SSW 6.9 mph - N/A   Overcast
1:32 PM 9.0 °F -3.2 °F 1.8 °F 73% 29.95 in 2.5 mi South 8.1 mph - N/A   Haze
1:52 PM 9.0 °F -5.1 °F 2.3 °F 74% 29.94 in 3.0 mi South 10.4 mph - N/A   Haze
2:12 PM 9.1 °F -4.0 °F 3.0 °F 76% 29.94 in 2.5 mi South 9.2 mph - N/A   Haze
2:32 PM 9.3 °F -3.8 °F 3.7 °F 78% 29.93 in 2.5 mi SSE 9.2 mph - N/A Snow Light Snow
2:52 PM 9.3 °F -3.8 °F 3.7 °F 78% 29.92 in 2.5 mi South 9.2 mph - N/A Snow Light Snow
3:12 PM 9.3 °F -2.8 °F 3.7 °F 78% 29.92 in 3.0 mi SSE 8.1 mph - N/A Snow Light Snow
3:32 PM 9.3 °F -3.8 °F 3.9 °F 79% 29.92 in 2.5 mi SSE 9.2 mph - N/A Snow Light Snow
3:52 PM 9.3 °F -4.6 °F 4.1 °F 79% 29.92 in 2.5 mi South 10.4 mph - N/A Snow Light Snow
4:13 PM 9.5 °F -4.4 °F 4.1 °F 79% 29.92 in 3.0 mi SSE 10.4 mph - N/A Snow Light Snow
4:32 PM 9.5 °F -3.5 °F 4.1 °F 79% 29.92 in 4.0 mi SSE 9.2 mph - N/A Snow Light Snow
4:52 PM 9.5 °F -5.2 °F 4.8 °F 81% 29.93 in 2.0 mi South 11.5 mph - N/A Snow Light Snow
5:13 PM 9.5 °F -3.5 °F 4.6 °F 81% 29.93 in 2.5 mi South 9.2 mph - N/A Snow Light Snow
5:32 PM 9.3 °F -4.6 °F 4.5 °F 81% 29.92 in 3.0 mi South 10.4 mph - N/A Snow Light Snow
5:52 PM 9.3 °F -1.7 °F 4.1 °F 79% 29.92 in 7.0 mi SSE 6.9 mph - N/A   Overcast
6:13 PM 9.1 °F -4.0 °F 4.1 °F 80% 29.93 in 10.0 mi South 9.2 mph - N/A   Overcast
6:32 PM 9.1 °F -3.0 °F 4.1 °F 80% 29.93 in 7.0 mi SSE 8.1 mph - N/A Snow Light Snow
6:52 PM 9.1 °F -1.9 °F 4.1 °F 80% 29.93 in 5.0 mi SSE 6.9 mph - N/A Snow Light Snow
7:13 PM 9.1 °F -3.0 °F 4.3 °F 81% 29.94 in 7.0 mi SSE 8.1 mph - N/A   Overcast
7:32 PM 9.3 °F -3.8 °F 4.5 °F 81% 29.94 in 5.0 mi South 9.2 mph - N/A   Haze
7:52 PM 9.5 °F -0.3 °F 5.0 °F 82% 29.94 in 3.0 mi South 5.8 mph - N/A Snow Light Snow
8:12 PM 9.5 °F -2.6 °F 5.0 °F 82% 29.94 in 2.5 mi SSE 8.1 mph - N/A Snow Light Snow
8:32 PM 9.3 °F -0.5 °F 5.0 °F 83% 29.94 in 3.0 mi SSE 5.8 mph - N/A Snow Light Snow
8:52 PM 9.3 °F -0.5 °F 5.0 °F 83% 29.94 in 3.0 mi SSE 5.8 mph - N/A Snow Light Snow
9:12 PM 9.0 °F -0.9 °F 4.5 °F 82% 29.94 in 5.0 mi SSE 5.8 mph - N/A Snow Light Snow
9:32 PM 8.8 °F -1.1 °F 4.5 °F 83% 29.94 in 4.0 mi SSE 5.8 mph - N/A Snow Light Snow
9:52 PM 9.0 °F 2.4 °F 4.6 °F 83% 29.94 in 3.0 mi SSE 3.5 mph - N/A Snow Light Snow
10:12 PM 9.0 °F 2.4 °F 4.8 °F 83% 29.94 in 2.5 mi SSE 3.5 mph - N/A Snow Light Snow
10:32 PM 8.6 °F 2.0 °F 4.5 °F 83% 29.94 in 10.0 mi SE 3.5 mph - N/A Snow Light Snow
10:52 PM 8.6 °F 2.0 °F 4.5 °F 83% 29.94 in 4.0 mi SE 3.5 mph - N/A Snow Light Snow
11:12 PM 8.6 °F 2.0 °F 4.3 °F 83% 29.94 in 4.0 mi SSE 3.5 mph - N/A Snow Light Snow
11:32 PM 8.4 °F -0.1 °F 4.3 °F 83% 29.94 in 2.5 mi SSE 4.6 mph - N/A Snow Light Snow
11:52 PM 7.9 °F 1.2 °F 3.7 °F 83% 29.94 in 5.0 mi SSE 3.5 mph - N/A Snow Light Snow